Year,Month,Day,Hour,Minute,Value (Times are PST for temperature in C)
2009,06,05,00,00,19.40
2009,06,05,00,01,19.30
2009,06,05,00,02,19.20
2009,06,05,00,03,19.10
2009,06,05,00,04,19.10
2009,06,05,00,05,19.10
2009,06,05,00,06,19.00
2009,06,05,00,07,18.90
2009,06,05,00,08,18.90
2009,06,05,00,09,18.90
2009,06,05,00,10,18.90
2009,06,05,00,11,18.80
2009,06,05,00,12,18.80
2009,06,05,00,13,18.80
2009,06,05,00,14,18.80
2009,06,05,00,15,18.80
2009,06,05,00,16,18.80
2009,06,05,00,17,18.80
2009,06,05,00,18,18.80
2009,06,05,00,19,18.80
2009,06,05,00,20,18.90
2009,06,05,00,21,18.90
2009,06,05,00,22,18.90
2009,06,05,00,23,18.90
2009,06,05,00,24,18.90
2009,06,05,00,25,18.90
2009,06,05,00,26,18.90
2009,06,05,00,27,18.90
2009,06,05,00,28,18.90
2009,06,05,00,29,18.90
2009,06,05,00,30,19.00
2009,06,05,00,31,19.10
2009,06,05,00,32,19.10
2009,06,05,00,33,19.10
2009,06,05,00,34,19.10
2009,06,05,00,35,19.10
2009,06,05,00,36,19.10
2009,06,05,00,37,19.10
2009,06,05,00,38,19.10
2009,06,05,00,39,19.10
2009,06,05,00,40,19.10
2009,06,05,00,41,19.10
2009,06,05,00,42,19.10
2009,06,05,00,43,19.10
2009,06,05,00,44,19.10
2009,06,05,00,45,19.10
2009,06,05,00,46,19.10
2009,06,05,00,47,19.10
2009,06,05,00,48,19.10
2009,06,05,00,49,19.10
2009,06,05,00,50,19.10
2009,06,05,00,51,19.10
2009,06,05,00,52,19.10
2009,06,05,00,53,19.10
2009,06,05,00,54,19.10
2009,06,05,00,55,19.10
2009,06,05,00,56,19.10
2009,06,05,00,57,19.10
2009,06,05,00,58,19.10
2009,06,05,00,59,19.10
2009,06,05,01,00,19.10
2009,06,05,01,01,19.10
2009,06,05,01,02,19.10
2009,06,05,01,03,19.10
2009,06,05,01,04,19.10
2009,06,05,01,05,19.10
2009,06,05,01,06,19.10
2009,06,05,01,07,19.10
2009,06,05,01,08,19.10
2009,06,05,01,09,19.10
2009,06,05,01,10,19.10
2009,06,05,01,11,19.10
2009,06,05,01,12,19.10
2009,06,05,01,13,19.10
2009,06,05,01,14,19.10
2009,06,05,01,15,19.10
2009,06,05,01,16,19.20
2009,06,05,01,17,19.20
2009,06,05,01,18,19.30
2009,06,05,01,19,19.30
2009,06,05,01,20,19.30
2009,06,05,01,21,19.40
2009,06,05,01,22,19.40
2009,06,05,01,23,19.40
2009,06,05,01,24,19.40
2009,06,05,01,25,19.50
2009,06,05,01,26,19.50
2009,06,05,01,27,19.60
2009,06,05,01,28,19.60
2009,06,05,01,29,19.70
2009,06,05,01,30,19.70
2009,06,05,01,31,19.70
2009,06,05,01,32,19.70
2009,06,05,01,33,19.70
2009,06,05,01,34,19.70
2009,06,05,01,35,19.70
2009,06,05,01,36,19.70
2009,06,05,01,37,19.80
2009,06,05,01,38,19.80
2009,06,05,01,39,19.80
2009,06,05,01,40,19.90
2009,06,05,01,41,20.00
2009,06,05,01,42,20.10
2009,06,05,01,43,20.20
2009,06,05,01,44,20.30
2009,06,05,01,45,20.40
2009,06,05,01,46,20.50
2009,06,05,01,47,20.60
2009,06,05,01,48,20.70
2009,06,05,01,49,20.80
2009,06,05,01,50,20.90
2009,06,05,01,51,20.90
2009,06,05,01,52,21.00
2009,06,05,01,53,21.00
2009,06,05,01,54,21.00
2009,06,05,01,55,21.00
2009,06,05,01,56,21.00
2009,06,05,01,57,21.00
2009,06,05,01,58,21.00
2009,06,05,01,59,21.00
2009,06,05,02,00,21.00
2009,06,05,02,01,21.00
2009,06,05,02,02,21.00
2009,06,05,02,03,21.00
2009,06,05,02,04,21.00
2009,06,05,02,05,21.00
2009,06,05,02,06,21.10
2009,06,05,02,07,21.10
2009,06,05,02,08,21.10
2009,06,05,02,09,21.00
2009,06,05,02,10,20.90
2009,06,05,02,11,20.80
2009,06,05,02,12,20.70
2009,06,05,02,13,20.50
2009,06,05,02,14,20.40
2009,06,05,02,15,20.40
2009,06,05,02,16,20.40
2009,06,05,02,17,20.40
2009,06,05,02,18,20.40
2009,06,05,02,19,20.50
2009,06,05,02,20,20.50
2009,06,05,02,21,20.60
2009,06,05,02,22,20.70
2009,06,05,02,23,20.80
2009,06,05,02,24,20.90
2009,06,05,02,25,20.90
2009,06,05,02,26,21.00
2009,06,05,02,27,21.00
2009,06,05,02,28,21.00
2009,06,05,02,29,20.90
2009,06,05,02,30,20.90
2009,06,05,02,31,20.80
2009,06,05,02,32,20.60
2009,06,05,02,33,20.50
2009,06,05,02,34,20.30
2009,06,05,02,35,20.00
2009,06,05,02,36,19.90
2009,06,05,02,37,19.70
2009,06,05,02,38,19.50
2009,06,05,02,39,19.30
2009,06,05,02,40,19.10
2009,06,05,02,41,19.00
2009,06,05,02,42,18.80
2009,06,05,02,43,18.60
2009,06,05,02,44,18.40
2009,06,05,02,45,18.20
2009,06,05,02,46,18.10
2009,06,05,02,47,18.00
2009,06,05,02,48,17.90
2009,06,05,02,49,17.90
2009,06,05,02,50,17.80
2009,06,05,02,51,17.70
2009,06,05,02,52,17.60
2009,06,05,02,53,17.50
2009,06,05,02,54,17.40
2009,06,05,02,55,17.30
2009,06,05,02,56,17.30
2009,06,05,02,57,17.30
2009,06,05,02,58,17.20
2009,06,05,02,59,17.10
2009,06,05,03,00,17.10
2009,06,05,03,01,17.00
2009,06,05,03,02,17.00
2009,06,05,03,03,17.00
2009,06,05,03,04,16.90
2009,06,05,03,05,16.90
2009,06,05,03,06,16.80
2009,06,05,03,07,16.80
2009,06,05,03,08,16.70
2009,06,05,03,09,16.70
2009,06,05,03,10,16.60
2009,06,05,03,11,16.50
2009,06,05,03,12,16.40
2009,06,05,03,13,16.30
2009,06,05,03,14,16.20
2009,06,05,03,15,16.10
2009,06,05,03,16,16.10
2009,06,05,03,17,16.10
2009,06,05,03,18,16.10
2009,06,05,03,19,16.10
2009,06,05,03,20,16.10
2009,06,05,03,21,16.10
2009,06,05,03,22,16.10
2009,06,05,03,23,16.10
2009,06,05,03,24,16.10
2009,06,05,03,25,16.10
2009,06,05,03,26,16.20
2009,06,05,03,27,16.20
2009,06,05,03,28,16.30
2009,06,05,03,29,16.30
2009,06,05,03,30,16.20
2009,06,05,03,31,16.20
2009,06,05,03,32,16.10
2009,06,05,03,33,15.90
2009,06,05,03,34,15.80
2009,06,05,03,35,15.70
2009,06,05,03,36,15.60
2009,06,05,03,37,15.40
2009,06,05,03,38,15.30
2009,06,05,03,39,15.20
2009,06,05,03,40,15.10
2009,06,05,03,41,15.00
2009,06,05,03,42,14.90
2009,06,05,03,43,14.80
2009,06,05,03,44,14.80
2009,06,05,03,45,14.80
2009,06,05,03,46,14.70
2009,06,05,03,47,14.70
2009,06,05,03,48,14.70
2009,06,05,03,49,14.70
2009,06,05,03,50,14.60
2009,06,05,03,51,14.50
2009,06,05,03,52,14.40
2009,06,05,03,53,14.30
2009,06,05,03,54,14.20
2009,06,05,03,55,14.20
2009,06,05,03,56,14.10
2009,06,05,03,57,14.10
2009,06,05,03,58,14.00
2009,06,05,03,59,14.00
2009,06,05,04,00,14.00
2009,06,05,04,01,14.00
2009,06,05,04,02,14.00
2009,06,05,04,03,14.00
2009,06,05,04,04,14.00
2009,06,05,04,05,13.90
2009,06,05,04,06,13.90
2009,06,05,04,07,13.90
2009,06,05,04,08,13.80
2009,06,05,04,09,13.80
2009,06,05,04,10,13.80
2009,06,05,04,11,13.80
2009,06,05,04,12,13.80
2009,06,05,04,13,13.80
2009,06,05,04,14,13.80
2009,06,05,04,15,13.70
2009,06,05,04,16,13.70
2009,06,05,04,17,13.70
2009,06,05,04,18,13.70
2009,06,05,04,19,13.70
2009,06,05,04,20,13.70
2009,06,05,04,21,13.60
2009,06,05,04,22,13.50
2009,06,05,04,23,13.50
2009,06,05,04,24,13.50
2009,06,05,04,25,13.50
2009,06,05,04,26,13.50
2009,06,05,04,27,13.40
2009,06,05,04,28,13.40
2009,06,05,04,29,13.40
2009,06,05,04,30,13.40
2009,06,05,04,31,13.40
2009,06,05,04,32,13.40
2009,06,05,04,33,13.40
2009,06,05,04,34,13.40
2009,06,05,04,35,13.40
2009,06,05,04,36,13.40
2009,06,05,04,37,13.40
2009,06,05,04,38,13.40
2009,06,05,04,39,13.30
2009,06,05,04,40,13.30
2009,06,05,04,41,13.30
2009,06,05,04,42,13.30
2009,06,05,04,43,13.30
2009,06,05,04,44,13.30
2009,06,05,04,45,13.30
2009,06,05,04,46,13.30
2009,06,05,04,47,13.30
2009,06,05,04,48,13.30
2009,06,05,04,49,13.30
2009,06,05,04,50,13.40
2009,06,05,04,51,13.40
2009,06,05,04,52,13.40
2009,06,05,04,53,13.40
2009,06,05,04,54,13.50
2009,06,05,04,55,13.50
2009,06,05,04,56,13.60
2009,06,05,04,57,13.60
2009,06,05,04,58,13.60
2009,06,05,04,59,13.70
2009,06,05,05,00,13.70
2009,06,05,05,01,13.70
2009,06,05,05,02,13.70
2009,06,05,05,03,13.80
2009,06,05,05,04,13.80
2009,06,05,05,05,13.80
2009,06,05,05,06,13.90
2009,06,05,05,07,13.90
2009,06,05,05,08,13.90
2009,06,05,05,09,14.00
2009,06,05,05,10,14.00
2009,06,05,05,11,14.10
2009,06,05,05,12,14.10
2009,06,05,05,13,14.10
2009,06,05,05,14,14.20
2009,06,05,05,15,14.20
2009,06,05,05,16,14.20
2009,06,05,05,17,14.20
2009,06,05,05,18,14.20
2009,06,05,05,19,14.20
2009,06,05,05,20,14.20
2009,06,05,05,21,14.30
2009,06,05,05,22,14.30
2009,06,05,05,23,14.40
2009,06,05,05,24,14.50
2009,06,05,05,25,14.50
2009,06,05,05,26,14.60
2009,06,05,05,27,14.70
2009,06,05,05,28,14.80
2009,06,05,05,29,14.90
2009,06,05,05,30,15.00
2009,06,05,05,31,15.10
2009,06,05,05,32,15.20
2009,06,05,05,33,15.30
2009,06,05,05,34,15.40
2009,06,05,05,35,15.50
2009,06,05,05,36,15.60
2009,06,05,05,37,15.60
2009,06,05,05,38,15.70
2009,06,05,05,39,15.70
2009,06,05,05,40,15.70
2009,06,05,05,41,15.80
2009,06,05,05,42,15.80
2009,06,05,05,43,15.80
2009,06,05,05,44,15.80
2009,06,05,05,45,15.80
2009,06,05,05,46,15.90
2009,06,05,05,47,15.90
2009,06,05,05,48,15.90
2009,06,05,05,49,16.00
2009,06,05,05,50,16.10
2009,06,05,05,51,16.10
2009,06,05,05,52,16.10
2009,06,05,05,53,16.10
2009,06,05,05,54,16.20
2009,06,05,05,55,16.20
2009,06,05,05,56,16.20
2009,06,05,05,57,16.20
2009,06,05,05,58,16.20
2009,06,05,05,59,16.30
2009,06,05,06,00,16.30
2009,06,05,06,01,16.30
2009,06,05,06,02,16.30
2009,06,05,06,03,16.40
2009,06,05,06,04,16.40
2009,06,05,06,05,16.40
2009,06,05,06,06,16.40
2009,06,05,06,07,16.40
2009,06,05,06,08,16.40
2009,06,05,06,09,16.50
2009,06,05,06,10,16.60
2009,06,05,06,11,16.60
2009,06,05,06,12,16.60
2009,06,05,06,13,16.70
2009,06,05,06,14,16.70
2009,06,05,06,15,16.70
2009,06,05,06,16,16.70
2009,06,05,06,17,16.80
2009,06,05,06,18,16.80
2009,06,05,06,19,16.80
2009,06,05,06,20,16.80
2009,06,05,06,21,16.80
2009,06,05,06,22,16.80
2009,06,05,06,23,16.80
2009,06,05,06,24,16.80
2009,06,05,06,25,16.80
2009,06,05,06,26,16.80
2009,06,05,06,27,16.80
2009,06,05,06,28,16.70
2009,06,05,06,29,16.70
2009,06,05,06,30,16.70
2009,06,05,06,31,16.70
2009,06,05,06,32,16.70
2009,06,05,06,33,16.60
2009,06,05,06,34,16.60
2009,06,05,06,35,16.60
2009,06,05,06,36,16.60
2009,06,05,06,37,16.60
2009,06,05,06,38,16.60
2009,06,05,06,39,16.60
2009,06,05,06,40,16.60
2009,06,05,06,41,16.60
2009,06,05,06,42,16.60
2009,06,05,06,43,16.60
2009,06,05,06,44,16.60
2009,06,05,06,45,16.60
2009,06,05,06,46,16.60
2009,06,05,06,47,16.60
2009,06,05,06,48,16.60
2009,06,05,06,49,16.70
2009,06,05,06,50,16.70
2009,06,05,06,51,16.70
2009,06,05,06,52,16.70
2009,06,05,06,53,16.70
2009,06,05,06,54,16.70
2009,06,05,06,55,16.70
2009,06,05,06,56,16.70
2009,06,05,06,57,16.70
2009,06,05,06,58,16.70
2009,06,05,06,59,16.70
2009,06,05,07,00,16.70
2009,06,05,07,01,16.70
2009,06,05,07,02,16.60
2009,06,05,07,03,16.60
2009,06,05,07,04,16.60
2009,06,05,07,05,16.50
2009,06,05,07,06,16.40
2009,06,05,07,07,16.40
2009,06,05,07,08,16.40
2009,06,05,07,09,16.40
2009,06,05,07,10,16.40
2009,06,05,07,11,16.30
2009,06,05,07,12,16.30
2009,06,05,07,13,16.30
2009,06,05,07,14,16.30
2009,06,05,07,15,16.30
2009,06,05,07,16,16.30
2009,06,05,07,17,16.30
2009,06,05,07,18,16.30
2009,06,05,07,19,16.30
2009,06,05,07,20,16.30
2009,06,05,07,21,16.20
2009,06,05,07,22,16.20
2009,06,05,07,23,16.20
2009,06,05,07,24,16.20
2009,06,05,07,25,16.20
2009,06,05,07,26,16.20
2009,06,05,07,27,16.30
2009,06,05,07,28,16.30
2009,06,05,07,29,16.30
2009,06,05,07,30,16.30
2009,06,05,07,31,16.30
2009,06,05,07,32,16.40
2009,06,05,07,33,16.40
2009,06,05,07,34,16.40
2009,06,05,07,35,16.40
2009,06,05,07,36,16.60
2009,06,05,07,37,16.60
2009,06,05,07,38,16.70
2009,06,05,07,39,16.70
2009,06,05,07,40,16.80
2009,06,05,07,41,16.80
2009,06,05,07,42,16.90
2009,06,05,07,43,16.90
2009,06,05,07,44,17.00
2009,06,05,07,45,17.00
2009,06,05,07,46,17.00
2009,06,05,07,47,17.10
2009,06,05,07,48,17.10
2009,06,05,07,49,17.10
2009,06,05,07,50,17.10
2009,06,05,07,51,17.10
2009,06,05,07,52,17.10
2009,06,05,07,53,17.10
2009,06,05,07,54,17.00
2009,06,05,07,55,17.00
2009,06,05,07,56,17.00
2009,06,05,07,57,16.90
2009,06,05,07,58,16.90
2009,06,05,07,59,16.90
2009,06,05,08,00,16.90
2009,06,05,08,01,16.90
2009,06,05,08,02,16.90
2009,06,05,08,03,16.90
2009,06,05,08,04,16.90
2009,06,05,08,05,16.90
2009,06,05,08,06,17.00
2009,06,05,08,07,17.00
2009,06,05,08,08,17.10
2009,06,05,08,09,17.10
2009,06,05,08,10,17.10
2009,06,05,08,11,17.10
2009,06,05,08,12,17.20
2009,06,05,08,13,17.10
2009,06,05,08,14,17.10
2009,06,05,08,15,17.10
2009,06,05,08,16,17.10
2009,06,05,08,17,17.10
2009,06,05,08,18,17.10
2009,06,05,08,19,17.20
2009,06,05,08,20,17.10
2009,06,05,08,21,17.10
2009,06,05,08,22,17.10
2009,06,05,08,23,17.10
2009,06,05,08,24,17.00
2009,06,05,08,25,16.90
2009,06,05,08,26,16.90
2009,06,05,08,27,16.80
2009,06,05,08,28,16.80
2009,06,05,08,29,16.80
2009,06,05,08,30,16.80
2009,06,05,08,31,16.70
2009,06,05,08,32,16.80
2009,06,05,08,33,16.80
2009,06,05,08,34,16.80
2009,06,05,08,35,16.90
2009,06,05,08,36,16.90
2009,06,05,08,37,16.90
2009,06,05,08,38,17.00
2009,06,05,08,39,17.00
2009,06,05,08,40,17.00
2009,06,05,08,41,17.10
2009,06,05,08,42,17.10
2009,06,05,08,43,17.20
2009,06,05,08,44,17.30
2009,06,05,08,45,17.30
2009,06,05,08,46,17.30
2009,06,05,08,47,17.30
2009,06,05,08,48,17.30
2009,06,05,08,49,17.30
2009,06,05,08,50,17.30
2009,06,05,08,51,17.30
2009,06,05,08,52,17.30
2009,06,05,08,53,17.40
2009,06,05,08,54,17.50
2009,06,05,08,55,17.50
2009,06,05,08,56,17.60
2009,06,05,08,57,17.70
2009,06,05,08,58,17.70
2009,06,05,08,59,17.80
2009,06,05,09,00,17.90
2009,06,05,09,01,18.00
2009,06,05,09,02,18.10
2009,06,05,09,03,18.10
2009,06,05,09,04,18.20
2009,06,05,09,05,18.20
2009,06,05,09,06,18.20
2009,06,05,09,07,18.20
2009,06,05,09,08,18.20
2009,06,05,09,09,18.20
2009,06,05,09,10,18.20
2009,06,05,09,11,18.20
2009,06,05,09,12,18.20
2009,06,05,09,13,18.20
2009,06,05,09,14,18.20
2009,06,05,09,15,18.20
2009,06,05,09,16,18.10
2009,06,05,09,17,18.10
2009,06,05,09,18,18.00
2009,06,05,09,19,18.00
2009,06,05,09,20,17.90
2009,06,05,09,21,17.90
2009,06,05,09,22,17.90
2009,06,05,09,23,17.90
2009,06,05,09,24,17.90
2009,06,05,09,25,17.90
2009,06,05,09,26,17.90
2009,06,05,09,27,17.90
2009,06,05,09,28,18.00
2009,06,05,09,29,18.10
2009,06,05,09,30,18.10
2009,06,05,09,31,18.20
2009,06,05,09,32,18.30
2009,06,05,09,33,18.30
2009,06,05,09,34,18.40
2009,06,05,09,35,18.40
2009,06,05,09,36,18.40
2009,06,05,09,37,18.50
2009,06,05,09,38,18.50
2009,06,05,09,39,18.50
2009,06,05,09,40,18.60
2009,06,05,09,41,18.70
2009,06,05,09,42,18.70
2009,06,05,09,43,18.80
2009,06,05,09,44,18.80
2009,06,05,09,45,18.80
2009,06,05,09,46,18.80
2009,06,05,09,47,18.90
2009,06,05,09,48,18.90
2009,06,05,09,49,18.90
2009,06,05,09,50,19.00
2009,06,05,09,51,19.10
2009,06,05,09,52,19.10
2009,06,05,09,53,19.20
2009,06,05,09,54,19.30
2009,06,05,09,55,19.30
2009,06,05,09,56,19.30
2009,06,05,09,57,19.20
2009,06,05,09,58,19.20
2009,06,05,09,59,19.10
2009,06,05,10,00,19.10
2009,06,05,10,01,19.10
2009,06,05,10,02,19.10
2009,06,05,10,03,19.20
2009,06,05,10,04,19.20
2009,06,05,10,05,19.20
2009,06,05,10,06,19.30
2009,06,05,10,07,19.30
2009,06,05,10,08,19.30
2009,06,05,10,09,19.30
2009,06,05,10,10,19.30
2009,06,05,10,11,19.40
2009,06,05,10,12,19.40
2009,06,05,10,13,19.50
2009,06,05,10,14,19.50
2009,06,05,10,15,19.50
2009,06,05,10,16,19.40
2009,06,05,10,17,19.40
2009,06,05,10,18,19.40
2009,06,05,10,19,19.50
2009,06,05,10,20,19.40
2009,06,05,10,21,19.40
2009,06,05,10,22,19.40
2009,06,05,10,23,19.50
2009,06,05,10,24,19.40
2009,06,05,10,25,19.50
2009,06,05,10,26,19.40
2009,06,05,10,27,19.30
2009,06,05,10,28,19.10
2009,06,05,10,29,19.00
2009,06,05,10,30,18.90
2009,06,05,10,31,18.90
2009,06,05,10,32,19.10
2009,06,05,10,33,19.10
2009,06,05,10,34,19.10
2009,06,05,10,35,19.20
2009,06,05,10,36,19.30
2009,06,05,10,37,19.30
2009,06,05,10,38,19.40
2009,06,05,10,39,19.50
2009,06,05,10,40,19.60
2009,06,05,10,41,19.70
2009,06,05,10,42,19.80
2009,06,05,10,43,19.90
2009,06,05,10,44,20.10
2009,06,05,10,45,20.20
2009,06,05,10,46,20.30
2009,06,05,10,47,20.30
2009,06,05,10,48,20.10
2009,06,05,10,49,19.90
2009,06,05,10,50,19.70
2009,06,05,10,51,19.50
2009,06,05,10,52,19.40
2009,06,05,10,53,19.30
2009,06,05,10,54,19.20
2009,06,05,10,55,19.20
2009,06,05,10,56,19.30
2009,06,05,10,57,19.30
2009,06,05,10,58,19.30
2009,06,05,10,59,19.30
2009,06,05,11,00,19.20
2009,06,05,11,01,19.20
2009,06,05,11,02,19.10
2009,06,05,11,03,19.10
2009,06,05,11,04,19.00
2009,06,05,11,05,18.90
2009,06,05,11,06,18.90
2009,06,05,11,07,18.80
2009,06,05,11,08,18.70
2009,06,05,11,09,18.70
2009,06,05,11,10,18.60
2009,06,05,11,11,18.50
2009,06,05,11,12,18.50
2009,06,05,11,13,18.50
2009,06,05,11,14,18.40
2009,06,05,11,15,18.40
2009,06,05,11,16,18.40
2009,06,05,11,17,18.40
2009,06,05,11,18,18.30
2009,06,05,11,19,18.20
2009,06,05,11,20,18.10
2009,06,05,11,21,18.00
2009,06,05,11,22,18.10
2009,06,05,11,23,18.00
2009,06,05,11,24,18.10
2009,06,05,11,25,18.20
2009,06,05,11,26,18.10
2009,06,05,11,27,18.00
2009,06,05,11,28,17.90
2009,06,05,11,29,17.90
2009,06,05,11,30,17.90
2009,06,05,11,31,17.90
2009,06,05,11,32,17.90
2009,06,05,11,33,17.90
2009,06,05,11,34,17.90
2009,06,05,11,35,17.90
2009,06,05,11,36,17.90
2009,06,05,11,37,17.90
2009,06,05,11,38,17.90
2009,06,05,11,39,17.90
2009,06,05,11,40,17.90
2009,06,05,11,41,18.00
2009,06,05,11,42,18.10
2009,06,05,11,43,18.20
2009,06,05,11,44,18.20
2009,06,05,11,45,18.20
2009,06,05,11,46,18.30
2009,06,05,11,47,18.30
2009,06,05,11,48,18.30
2009,06,05,11,49,18.30
2009,06,05,11,50,18.40
2009,06,05,11,51,18.40
2009,06,05,11,52,18.40
2009,06,05,11,53,18.50
2009,06,05,11,54,18.50
2009,06,05,11,55,18.60
2009,06,05,11,56,18.70
2009,06,05,11,57,18.80
2009,06,05,11,58,18.90
2009,06,05,11,59,18.90
2009,06,05,12,00,19.00
2009,06,05,12,01,19.00
2009,06,05,12,02,18.90
2009,06,05,12,03,18.90
2009,06,05,12,04,18.90
2009,06,05,12,05,18.90
2009,06,05,12,06,19.10
2009,06,05,12,07,19.10
2009,06,05,12,08,19.20
2009,06,05,12,09,19.30
2009,06,05,12,10,19.40
2009,06,05,12,11,19.50
2009,06,05,12,12,19.60
2009,06,05,12,13,19.60
2009,06,05,12,14,19.70
2009,06,05,12,15,19.80
2009,06,05,12,16,19.80
2009,06,05,12,17,19.80
2009,06,05,12,18,19.90
2009,06,05,12,19,19.80
2009,06,05,12,20,19.80
2009,06,05,12,21,19.90
2009,06,05,12,22,20.00
2009,06,05,12,23,20.10
2009,06,05,12,24,20.20
2009,06,05,12,25,20.20
2009,06,05,12,26,20.30
2009,06,05,12,27,20.30
2009,06,05,12,28,20.30
2009,06,05,12,29,20.30
2009,06,05,12,30,20.20
2009,06,05,12,31,20.20
2009,06,05,12,32,20.00
2009,06,05,12,33,19.90
2009,06,05,12,34,19.90
2009,06,05,12,35,19.90
2009,06,05,12,36,19.90
2009,06,05,12,37,19.90
2009,06,05,12,38,19.90
2009,06,05,12,39,19.90
2009,06,05,12,40,20.10
2009,06,05,12,41,20.00
2009,06,05,12,42,20.00
2009,06,05,12,43,20.00
2009,06,05,12,44,19.90
2009,06,05,12,45,19.90
2009,06,05,12,46,19.90
2009,06,05,12,47,19.80
2009,06,05,12,48,19.80
2009,06,05,12,49,19.90
2009,06,05,12,50,19.90
2009,06,05,12,51,19.90
2009,06,05,12,52,20.00
2009,06,05,12,53,20.10
2009,06,05,12,54,20.20
2009,06,05,12,55,20.20
2009,06,05,12,56,20.30
2009,06,05,12,57,20.30
2009,06,05,12,58,20.20
2009,06,05,12,59,20.20
2009,06,05,13,00,20.20
2009,06,05,13,01,20.20
2009,06,05,13,02,20.20
2009,06,05,13,03,20.20
2009,06,05,13,04,20.20
2009,06,05,13,05,20.20
2009,06,05,13,06,20.20
2009,06,05,13,07,20.20
2009,06,05,13,08,20.00
2009,06,05,13,09,19.90
2009,06,05,13,10,19.90
2009,06,05,13,11,19.90
2009,06,05,13,12,19.80
2009,06,05,13,13,19.80
2009,06,05,13,14,19.80
2009,06,05,13,15,19.80
2009,06,05,13,16,19.90
2009,06,05,13,17,20.00
2009,06,05,13,18,19.90
2009,06,05,13,19,19.90
2009,06,05,13,20,19.90
2009,06,05,13,21,19.90
2009,06,05,13,22,19.90
2009,06,05,13,23,19.90
2009,06,05,13,24,19.90
2009,06,05,13,25,19.90
2009,06,05,13,26,19.90
2009,06,05,13,27,19.90
2009,06,05,13,28,19.90
2009,06,05,13,29,19.90
2009,06,05,13,30,19.90
2009,06,05,13,31,19.90
2009,06,05,13,32,19.90
2009,06,05,13,33,19.90
2009,06,05,13,34,19.90
2009,06,05,13,35,19.90
2009,06,05,13,36,19.80
2009,06,05,13,37,19.70
2009,06,05,13,38,19.70
2009,06,05,13,39,19.70
2009,06,05,13,40,19.70
2009,06,05,13,41,19.80
2009,06,05,13,42,19.90
2009,06,05,13,43,19.90
2009,06,05,13,44,19.90
2009,06,05,13,45,19.90
2009,06,05,13,46,19.90
2009,06,05,13,47,20.00
2009,06,05,13,48,20.10
2009,06,05,13,49,20.10
2009,06,05,13,50,20.00
2009,06,05,13,51,19.90
2009,06,05,13,52,19.90
2009,06,05,13,53,19.90
2009,06,05,13,54,19.90
2009,06,05,13,55,19.90
2009,06,05,13,56,19.90
2009,06,05,13,57,19.80
2009,06,05,13,58,19.70
2009,06,05,13,59,19.50
2009,06,05,14,00,19.40
2009,06,05,14,01,19.30
2009,06,05,14,02,19.10
2009,06,05,14,03,19.10
2009,06,05,14,04,19.10
2009,06,05,14,05,19.10
2009,06,05,14,06,19.20
2009,06,05,14,07,19.20
2009,06,05,14,08,19.10
2009,06,05,14,09,19.20
2009,06,05,14,10,19.20
2009,06,05,14,11,19.20
2009,06,05,14,12,19.30
2009,06,05,14,13,19.30
2009,06,05,14,14,19.20
2009,06,05,14,15,19.10
2009,06,05,14,16,18.90
2009,06,05,14,17,18.90
2009,06,05,14,18,18.90
2009,06,05,14,19,18.90
2009,06,05,14,20,18.90
2009,06,05,14,21,18.90
2009,06,05,14,22,19.00
2009,06,05,14,23,19.10
2009,06,05,14,24,19.10
2009,06,05,14,25,19.10
2009,06,05,14,26,19.20
2009,06,05,14,27,19.30
2009,06,05,14,28,19.40
2009,06,05,14,29,19.40
2009,06,05,14,30,19.50
2009,06,05,14,31,19.60
2009,06,05,14,32,19.60
2009,06,05,14,33,19.60
2009,06,05,14,34,19.50
2009,06,05,14,35,19.40
2009,06,05,14,36,19.40
2009,06,05,14,37,19.30
2009,06,05,14,38,19.30
2009,06,05,14,39,19.30
2009,06,05,14,40,19.30
2009,06,05,14,41,19.30
2009,06,05,14,42,19.30
2009,06,05,14,43,19.30
2009,06,05,14,44,19.40
2009,06,05,14,45,19.40
2009,06,05,14,46,19.40
2009,06,05,14,47,19.40
2009,06,05,14,48,19.50
2009,06,05,14,49,19.50
2009,06,05,14,50,19.50
2009,06,05,14,51,19.60
2009,06,05,14,52,19.70
2009,06,05,14,53,19.80
2009,06,05,14,54,19.90
2009,06,05,14,55,19.90
2009,06,05,14,56,19.90
2009,06,05,14,57,19.90
2009,06,05,14,58,19.90
2009,06,05,14,59,19.90
2009,06,05,15,00,19.90
2009,06,05,15,01,19.90
2009,06,05,15,02,19.80
2009,06,05,15,03,19.70
2009,06,05,15,04,19.70
2009,06,05,15,05,19.60
2009,06,05,15,06,19.50
2009,06,05,15,07,19.60
2009,06,05,15,08,19.70
2009,06,05,15,09,19.70
2009,06,05,15,10,19.70
2009,06,05,15,11,19.70
2009,06,05,15,12,19.70
2009,06,05,15,13,19.70
2009,06,05,15,14,19.80
2009,06,05,15,15,19.80
2009,06,05,15,16,19.80
2009,06,05,15,17,19.80
2009,06,05,15,18,19.90
2009,06,05,15,19,20.00
2009,06,05,15,20,20.10
2009,06,05,15,21,20.10
2009,06,05,15,22,20.20
2009,06,05,15,23,20.20
2009,06,05,15,24,20.20
2009,06,05,15,25,20.30
2009,06,05,15,26,20.40
2009,06,05,15,27,20.50
2009,06,05,15,28,20.50
2009,06,05,15,29,20.70
2009,06,05,15,30,20.70
2009,06,05,15,31,20.70
2009,06,05,15,32,20.60
2009,06,05,15,33,20.60
2009,06,05,15,34,20.70
2009,06,05,15,35,20.80
2009,06,05,15,36,20.80
2009,06,05,15,37,20.80
2009,06,05,15,38,20.70
2009,06,05,15,39,20.60
2009,06,05,15,40,20.70
2009,06,05,15,41,20.80
2009,06,05,15,42,20.90
2009,06,05,15,43,21.00
2009,06,05,15,44,21.00
2009,06,05,15,45,21.20
2009,06,05,15,46,21.20
2009,06,05,15,47,21.20
2009,06,05,15,48,21.30
2009,06,05,15,49,21.30
2009,06,05,15,50,21.30
2009,06,05,15,51,21.30
2009,06,05,15,52,21.30
2009,06,05,15,53,21.30
2009,06,05,15,54,21.30
2009,06,05,15,55,21.40
2009,06,05,15,56,21.50
2009,06,05,15,57,21.60
2009,06,05,15,58,21.70
2009,06,05,15,59,21.80
2009,06,05,16,00,21.80
2009,06,05,16,01,21.90
2009,06,05,16,02,21.90
2009,06,05,16,03,22.00
2009,06,05,16,04,22.00
2009,06,05,16,05,22.10
2009,06,05,16,06,22.10
2009,06,05,16,07,22.10
2009,06,05,16,08,22.00
2009,06,05,16,09,22.00
2009,06,05,16,10,22.00
2009,06,05,16,11,22.10
2009,06,05,16,12,22.10
2009,06,05,16,13,22.10
2009,06,05,16,14,22.10
2009,06,05,16,15,22.10
2009,06,05,16,16,22.10
2009,06,05,16,17,22.10
2009,06,05,16,18,22.10
2009,06,05,16,19,22.00
2009,06,05,16,20,22.00
2009,06,05,16,21,22.00
2009,06,05,16,22,22.00
2009,06,05,16,23,22.00
2009,06,05,16,24,22.00
2009,06,05,16,25,21.90
2009,06,05,16,26,21.90
2009,06,05,16,27,21.90
2009,06,05,16,28,21.90
2009,06,05,16,29,22.00
2009,06,05,16,30,22.00
2009,06,05,16,31,22.10
2009,06,05,16,32,22.10
2009,06,05,16,33,22.20
2009,06,05,16,34,22.20
2009,06,05,16,35,22.10
2009,06,05,16,36,22.10
2009,06,05,16,37,22.10
2009,06,05,16,38,22.10
2009,06,05,16,39,22.10
2009,06,05,16,40,22.20
2009,06,05,16,41,22.20
2009,06,05,16,42,22.20
2009,06,05,16,43,22.30
2009,06,05,16,44,22.20
2009,06,05,16,45,22.30
2009,06,05,16,46,22.30
2009,06,05,16,47,22.20
2009,06,05,16,48,22.10
2009,06,05,16,49,22.10
2009,06,05,16,50,22.10
2009,06,05,16,51,22.10
2009,06,05,16,52,22.10
2009,06,05,16,53,22.20
2009,06,05,16,54,22.20
2009,06,05,16,55,22.20
2009,06,05,16,56,22.20
2009,06,05,16,57,22.30
2009,06,05,16,58,22.40
2009,06,05,16,59,22.50
2009,06,05,17,00,22.50
2009,06,05,17,01,22.60
2009,06,05,17,02,22.60
2009,06,05,17,03,22.60
2009,06,05,17,04,22.50
2009,06,05,17,05,22.50
2009,06,05,17,06,22.50
2009,06,05,17,07,22.60
2009,06,05,17,08,22.60
2009,06,05,17,09,22.60
2009,06,05,17,10,22.60
2009,06,05,17,11,22.60
2009,06,05,17,12,22.50
2009,06,05,17,13,22.40
2009,06,05,17,14,22.40
2009,06,05,17,15,22.30
2009,06,05,17,16,22.30
2009,06,05,17,17,22.30
2009,06,05,17,18,22.30
2009,06,05,17,19,22.20